Карточка аэропорта USCM

Внимание!
Информация на этой странице в стадии наполнения.
Если вы не увидели какой-то информации, или заметили неточность - пожалуйста сообщите нам!
Спасибо!
Команда RU-STAFF
Название аэропортаМагнитогорск
Название аэропорта (англ.)Magnitogorsk
Превышение436 ft. (132.9 m.)
Координаты53°23.586', 58°45.336'
Высота перехода7000ft
Эшелон переходаQNH>1013:FL80; 1013>QNH>977:FL90; 977>QNH:FL100;
Коды ответчика5501-5517
Зона ОрВДЕкатеринбург РПИ (USSV)
Данные METARUSCM 200600Z 36002MPS 330V070 9999 SCT040 22/14 Q1006 R36/090060 NOSIG RMK QFE716
Проноз погоды (TAF)USCM 200452Z 2006/2015 33003G13MPS 9999 BKN030 TEMPO 2006/2015 -TSRA BKN016CB
NOTAMshow/hide NOTAM
AWOS   TABLE

Информация о ВПП

ВПП Длина ВПП (м.) Покрытие Курс ВПП Частота ILS
013250Цементобетон5108.7
193250Цементобетон185109.9

Диспетчерские позиции

Позывной Наименование органа УВД Частота
USCM_TWRМагнитогорск-Вышка120.8



Спутниковое изображение